EW7507 Weather Reports


Display with metric or nautical units.
time (UTC)temp
F
wind
direction
speed
MPH
gust
MPH
rain 1hr
in
rain 24hr
in
rain mn
in
humidity
%
barometer
mb
20260508082739 47 283 1.0 2.0 0.00 0.00 0.00 77 971.2
20260508082731 47 293 1.0 7.0 0.00 0.00 0.00 77 971.1
20260508082354 47 283 1.0 3.0 0.00 0.00 0.00 77 971.1
20260508081236 47 302 0.0 6.0 0.00 0.00 0.00 76 971.2
20260508081229 47 283 0.0 5.0 0.00 0.00 0.00 76 971.1
20260508080228 47 306 0.0 6.0 0.00 0.00 0.00 76 971.1
20260508075731 48 299 2.0 6.0 0.00 0.00 0.00 75 971.1
20260508075228 48 290 0.0 5.0 0.00 0.00 0.00 75 971.1
20260508074738 48 272 0.0 9.0 0.00 0.00 0.00 74 971.2
20260508074731 48 293 0.0 5.0 0.00 0.00 0.00 75 971.1
20260508073736 49 300 0.0 7.0 0.00 0.00 0.00 74 971.1
20260508073729 49 276 1.0 9.0 0.00 0.00 0.00 74 971.2
20260508072729 49 290 0.0 6.0 0.00 0.00 0.00 74 971.1
20260508072228 49 275 0.0 1.0 0.00 0.00 0.00 74 971.2
20260508071730 49 224 0.0 0.0 0.00 0.00 0.00 74 971.2
20260508071228 49 224 0.0 0.0 0.00 0.00 0.00 74 971.2
20260508070729 50 224 0.0 1.0 0.00 0.00 0.00 73 971.4
20260508070228 50 224 0.0 2.0 0.00 0.00 0.00 73 971.4
20260508065729 50 224 0.0 2.0 0.00 0.00 0.00 73 971.4
20260508065227 50 224 0.0 3.0 0.00 0.00 0.00 72 971.4
20260508064728 50 224 0.0 3.0 0.00 0.00 0.00 71 971.4
20260508064235 51 223 0.0 0.0 0.00 0.00 0.00 71 971.4
20260508064227 50 223 0.0 1.0 0.00 0.00 0.00 71 971.4
20260508063226 51 223 0.0 0.0 0.00 0.00 0.00 70 971.4
20260508062729 51 223 0.0 1.0 0.00 0.00 0.00 70 971.4
20260508062233 52 223 0.0 0.0 0.00 0.00 0.00 69 971.4
20260508062226 51 223 0.0 1.0 0.00 0.00 0.00 70 971.5
20260508061227 52 223 0.0 0.0 0.00 0.00 0.00 68 971.5
20260508060728 53 223 0.0 0.0 0.00 0.00 0.00 67 971.5
20260508060232 53 223 0.0 0.0 0.00 0.00 0.00 67 971.3
20260508060226 53 223 0.0 0.0 0.00 0.00 0.00 67 971.4
20260508055226 53 223 0.0 0.0 0.00 0.00 0.00 66 971.4
20260508054726 53 223 0.0 0.0 0.00 0.00 0.00 66 971.3
20260508054226 53 223 0.0 0.0 0.00 0.00 0.00 66 971.3
20260508053726 54 223 0.0 0.0 0.00 0.00 0.00 65 971.2
20260508053225 54 223 0.0 1.0 0.00 0.00 0.00 65 971.3
20260508052727 54 223 0.0 1.0 0.00 0.00 0.00 65 971.3
20260508052232 55 223 0.0 0.0 0.00 0.00 0.00 64 971.4
20260508052224 54 223 0.0 0.0 0.00 0.00 0.00 65 971.4
20260508051225 55 223 0.0 0.0 0.00 0.00 0.00 64 971.3
20260508050727 55 223 0.0 1.0 0.00 0.00 0.00 64 971.5
20260508050226 55 223 0.0 1.0 0.00 0.00 0.00 63 971.4
20260508045727 55 223 0.0 5.0 0.00 0.00 0.00 63 971.4
20260508045231 56 210 1.0 9.0 0.00 0.00 0.00 62 971.5
20260508045224 55 203 0.0 6.0 0.00 0.00 0.00 63 971.4
20260508044852 56 240 3.0 9.0 0.00 0.00 0.00 62 971.6
20260508043731 56 216 0.0 9.0 0.00 0.00 0.00 60 971.4
20260508043724 56 182 1.0 9.0 0.00 0.00 0.00 61 971.4
20260508042725 57 234 0.0 6.0 0.00 0.00 0.00 58 971.4
20260508042231 58 230 0.0 9.0 0.00 0.00 0.00 56 971.4
20260508042224 57 243 1.0 6.0 0.00 0.00 0.00 57 971.4
20260508041224 58 217 0.0 9.0 0.00 0.00 0.00 54 971.3
20260508040725 58 252 0.0 6.0 0.00 0.00 0.00 52 971.3
20260508040222 59 266 1.0 6.0 0.00 0.00 0.00 51 971.3
20260508035730 59 254 0.0 3.0 0.00 0.00 0.00 50 971.3
20260508035223 59 217 0.0 6.0 0.00 0.00 0.00 49 971.3
20260508034725 59 234 1.0 6.0 0.00 0.00 0.00 48 971.3
20260508034222 60 227 0.0 5.0 0.00 0.00 0.00 47 971.2
20260508033732 61 289 0.0 0.0 0.00 0.00 0.00 44 971.0
20260508033723 60 230 1.0 5.0 0.00 0.00 0.00 46 971.1
20260508032732 62 289 0.0 1.0 0.00 0.00 0.00 43 970.9
20260508032724 61 289 0.0 0.0 0.00 0.00 0.00 44 970.9
20260508031725 62 289 0.0 3.0 0.00 0.00 0.00 42 970.8
20260508031222 62 290 0.0 3.0 0.00 0.00 0.00 41 970.7
20260508030723 62 285 0.0 0.0 0.00 0.00 0.00 41 970.7
20260508030352 64 243 0.0 5.0 0.00 0.00 0.00 35 970.4
20260508030230 64 262 0.0 5.0 0.00 0.00 0.00 38 970.6
20260508030222 63 269 0.0 2.0 0.00 0.00 0.00 39 970.7
20260508024723 65 0 0.0 0.0 0.00 0.00 0.00 34 970.3
20260508024221 66 0 0.0 0.0 0.00 0.00 0.00 33 970.3
20260508023723 66 0 0.0 0.0 0.00 0.00 0.00 32 970.2
20260508023220 67 0 0.0 0.0 0.00 0.00 0.00 32 970.2
20260508022723 67 0 0.0 0.0 0.00 0.00 0.00 31 970.1
20260508022228 68 0 0.0 0.0 0.00 0.00 0.00 31 970.2
20260508022221 67 0 0.0 0.0 0.00 0.00 0.00 31 970.0
20260508021219 68 0 0.0 1.0 0.00 0.00 0.00 29 970.2
20260508020730 68 0 0.0 15.0 0.00 0.00 0.00 29 970.2
20260508020722 68 0 0.0 4.0 0.00 0.00 0.00 29 970.1
20260508015721 69 4 1.0 15.0 0.00 0.00 0.00 29 970.2
20260508015219 69 0 2.0 11.0 0.00 0.00 0.00 29 970.1
20260508014723 69 333 0.0 14.0 0.00 0.00 0.00 29 970.0
20260508014221 69 0 0.0 15.0 0.00 0.00 0.00 28 970.1
20260508013723 69 13 6.0 15.0 0.00 0.00 0.00 29 970.2
20260508013219 70 13 0.0 0.0 0.00 0.00 0.00 34 970.0
20260508012721 70 13 0.0 0.0 0.00 0.00 0.00 28 969.9
20260508012218 70 13 0.0 0.0 0.00 0.00 0.00 28 969.8
20260508011721 70 13 0.0 0.0 0.00 0.00 0.00 29 969.7
20260508011218 71 13 0.0 0.0 0.00 0.00 0.00 30 969.6
20260508010722 71 13 0.0 2.0 0.00 0.00 0.00 27 969.6
20260508010218 71 13 0.0 2.0 0.00 0.00 0.00 26 969.5
20260508005722 71 13 0.0 2.0 0.00 0.00 0.00 25 969.5
20260508005217 71 13 0.0 2.0 0.00 0.00 0.00 25 969.6
20260508004721 71 13 0.0 0.0 0.00 0.00 0.00 25 969.5
20260508004217 71 13 0.0 0.0 0.00 0.00 0.00 25 969.6
20260508003722 71 13 0.0 0.0 0.00 0.00 0.00 24 969.6
20260508003218 72 13 0.0 0.0 0.00 0.00 0.00 25 969.5
20260508002721 72 14 0.0 3.0 0.00 0.00 0.00 25 969.5
20260508002218 72 14 1.0 3.0 0.00 0.00 0.00 24 969.4
20260508001726 73 13 0.0 4.0 0.00 0.00 0.00 24 969.5
20260508001718 72 13 0.0 2.0 0.00 0.00 0.00 24 969.4
20260508000722 73 13 0.0 4.0 0.00 0.00 0.00 23 969.4
20260508000219 73 0 0.0 6.0 0.00 0.00 0.00 23 969.4
20260507235718 74 336 1.0 6.0 0.00 0.00 0.00 22 969.2
20260507235217 74 45 0.0 0.0 0.00 0.00 0.00 21 969.2
20260507234723 75 37 0.0 9.0 0.00 0.00 0.00 21 969.1
20260507234218 75 0 0.0 10.0 0.00 0.00 0.00 21 969.1
20260507233718 76 0 0.0 10.0 0.00 0.00 0.00 23 969.1
20260507233223 76 1 1.0 6.0 0.00 0.00 0.00 20 969.2
20260507233216 76 68 0.0 10.0 0.00 0.00 0.00 21 969.1
20260507232844 77 3 0.0 5.0 0.00 0.00 0.00 20 969.2
20260507231720 76 350 0.0 7.0 0.00 0.00 0.00 20 969.2
20260507231216 76 1 0.0 7.0 0.00 0.00 0.00 20 969.2
20260507230720 75 337 1.0 5.0 0.00 0.00 0.00 21 969.3
20260507230216 75 347 0.0 3.0 0.00 0.00 0.00 22 969.3
20260507225727 74 351 0.0 5.0 0.00 0.00 0.00 22 969.3
20260507225720 74 0 0.0 4.0 0.00 0.00 0.00 22 969.4
20260507224718 74 0 0.0 6.0 0.00 0.00 0.00 22 969.3
20260507224215 75 344 1.0 6.0 0.00 0.00 0.00 21 969.4
20260507223718 75 340 0.0 7.0 0.00 0.00 0.00 21 969.4
20260507223215 75 343 1.0 14.0 0.00 0.00 0.00 21 969.4
20260507222718 75 357 2.0 14.0 0.00 0.00 0.00 21 969.4
20260507222214 75 330 4.0 11.0 0.00 0.00 0.00 21 969.4
20260507221719 76 13 1.0 13.0 0.00 0.00 0.00 21 969.5
20260507221213 76 0 1.0 13.0 0.00 0.00 0.00 22 969.4
20260507220715 75 49 2.0 11.0 0.00 0.00 0.00 23 969.5
20260507220219 75 4 0.0 1.0 0.00 0.00 0.00 23 969.5
20260507220213 75 16 1.0 11.0 0.00 0.00 0.00 22 969.6
20260507215214 75 17 0.0 7.0 0.00 0.00 0.00 21 969.6
20260507214715 74 17 0.0 10.0 0.00 0.00 0.00 22 969.8
20260507214215 74 0 3.0 10.0 0.00 0.00 0.00 23 969.8
20260507213714 74 90 0.0 12.0 0.00 0.00 0.00 23 969.7
20260507213213 74 1 4.0 12.0 0.00 0.00 0.00 23 969.9
20260507212714 74 8 0.0 15.0 0.00 0.00 0.00 23 969.9
20260507212212 74 11 0.0 15.0 0.00 0.00 0.00 23 970.0
20260507211722 74 20 0.0 13.0 0.00 0.00 0.00 23 970.1
20260507211715 74 341 3.0 13.0 0.00 0.00 0.00 23 970.1
20260507210714 75 295 0.0 9.0 0.00 0.00 0.00 22 970.1
20260507210212 76 269 1.0 11.0 0.00 0.00 0.00 22 970.1
20260507205715 76 281 2.0 14.0 0.00 0.00 0.00 21 970.2
20260507205219 76 302 0.0 7.0 0.00 0.00 0.00 23 970.3
20260507205211 76 268 0.0 14.0 0.00 0.00 0.00 22 970.2
20260507204212 75 326 0.0 5.0 0.00 0.00 0.00 23 970.3
20260507203713 74 0 1.0 5.0 0.00 0.00 0.00 23 970.4
20260507203211 74 0 0.0 16.0 0.00 0.00 0.00 25 970.3
20260507202712 74 331 0.0 16.0 0.00 0.00 0.00 23 970.3
20260507202211 74 317 1.0 16.0 0.00 0.00 0.00 24 970.3
20260507201714 74 290 5.0 17.0 0.00 0.00 0.00 24 970.3
20260507201219 76 343 5.0 19.0 0.00 0.00 0.00 23 970.3
20260507201212 75 269 8.0 18.0 0.00 0.00 0.00 24 970.3
20260507200211 76 310 9.0 19.0 0.00 0.00 0.00 25 970.3
20260507195712 76 296 5.0 17.0 0.00 0.00 0.00 23 970.4
20260507195210 76 338 5.0 14.0 0.00 0.00 0.00 25 970.4
20260507194712 76 265 0.0 15.0 0.00 0.00 0.00 25 970.4
20260507194211 75 252 6.0 15.0 0.00 0.00 0.00 25 970.6
20260507193712 76 309 5.0 14.0 0.00 0.00 0.00 24 970.6
20260507193210 75 1 0.0 13.0 0.00 0.00 0.00 27 970.4
20260507192713 75 302 1.0 18.0 0.00 0.00 0.00 25 970.6
20260507192210 75 288 5.0 18.0 0.00 0.00 0.00 26 970.4
20260507191711 74 300 0.0 10.0 0.00 0.00 0.00 27 970.4
20260507191210 73 324 2.0 12.0 0.00 0.00 0.00 27 970.6
20260507190711 73 272 2.0 12.0 0.00 0.00 0.00 27 970.7
20260507190209 73 344 2.0 12.0 0.00 0.00 0.00 27 970.7
20260507185710 74 354 2.0 11.0 0.00 0.00 0.00 28 970.7
20260507185208 74 0 0.0 12.0 0.00 0.00 0.00 29 970.7
20260507184710 73 286 0.0 14.0 0.00 0.00 0.00 29 970.7
20260507184209 73 333 0.0 14.0 0.00 0.00 0.00 28 970.8
20260507183710 73 286 6.0 14.0 0.00 0.00 0.00 28 970.8
20260507183215 73 326 0.0 16.0 0.00 0.00 0.00 30 970.8
20260507183208 73 255 6.0 14.0 0.00 0.00 0.00 29 970.9
20260507182208 72 272 0.0 18.0 0.00 0.00 0.00 31 971.0
20260507181711 72 326 4.0 18.0 0.00 0.00 0.00 30 971.0
20260507181208 71 312 0.0 15.0 0.00 0.00 0.00 33 970.9
20260507180710 71 278 7.0 15.0 0.00 0.00 0.00 31 971.0
20260507180207 72 350 3.0 11.0 0.00 0.00 0.00 31 970.9
20260507175718 71 320 0.0 10.0 0.00 0.00 0.00 31 970.9
20260507175710 72 0 0.0 10.0 0.00 0.00 0.00 31 970.7
20260507174716 70 259 0.0 10.0 0.00 0.00 0.00 35 970.9
20260507174709 71 319 2.0 10.0 0.00 0.00 0.00 34 970.8
20260507173709 70 254 0.0 12.0 0.00 0.00 0.00 34 970.8
20260507173216 69 316 0.0 14.0 0.00 0.00 0.00 33 970.7
20260507173208 69 292 3.0 12.0 0.00 0.00 0.00 33 970.8
20260507172834 68 330 4.0 17.0 0.00 0.00 0.00 34 970.9
20260507171708 68 317 12.0 17.0 0.00 0.00 0.00 34 970.9
20260507171207 68 333 0.0 10.0 0.00 0.00 0.00 33 971.0
20260507170708 68 320 0.0 13.0 0.00 0.00 0.00 34 971.0
20260507170209 67 307 5.0 13.0 0.00 0.00 0.00 37 971.1
20260507165205 67 279 1.0 13.0 0.00 0.00 0.00 39 971.2
20260507164708 66 274 6.0 11.0 0.00 0.00 0.00 39 971.2
20260507164206 65 244 0.0 10.0 0.00 0.00 0.00 40 971.2
20260507163707 65 293 1.0 10.0 0.00 0.00 0.00 41 971.3
20260507163205 65 296 1.0 13.0 0.00 0.00 0.00 41 971.3
20260507162715 64 283 4.0 12.0 0.00 0.00 0.00 40 971.4
20260507162707 65 245 1.0 13.0 0.00 0.00 0.00 41 971.3
20260507161716 64 271 1.0 10.0 0.00 0.00 0.00 41 971.4
20260507161707 64 292 1.0 12.0 0.00 0.00 0.00 41 971.4
20260507160707 64 303 1.0 12.0 0.00 0.00 0.00 41 971.5
20260507160205 64 295 4.0 12.0 0.00 0.00 0.00 40 971.5
20260507155706 65 289 3.0 13.0 0.00 0.00 0.00 40 971.5
20260507155204 65 289 3.0 13.0 0.00 0.00 0.00 41 971.6
20260507154713 62 299 5.0 10.0 0.00 0.00 0.00 42 971.5
20260507154706 63 306 4.0 12.0 0.00 0.00 0.00 41 971.6
20260507153705 61 285 1.0 6.0 0.00 0.00 0.00 44 971.6
20260507153203 60 207 2.0 4.0 0.00 0.00 0.00 49 971.7
20260507152705 60 204 0.0 0.0 0.00 0.00 0.00 46 971.6
20260507152221 60 204 0.0 0.0 0.00 0.00 0.00 43 971.7
20260507152204 60 204 0.0 0.0 0.00 0.00 0.00 49 971.7
20260507151832 59 206 0.0 0.0 0.00 0.00 0.00 45 971.7
20260507150706 59 269 0.0 0.0 0.00 0.00 0.00 47 971.7
20260507150212 57 269 0.0 0.0 0.00 0.00 0.00 49 971.6
20260507150204 58 269 0.0 0.0 0.00 0.00 0.00 48 971.7
20260507145204 56 269 0.0 0.0 0.00 0.00 0.00 49 971.6
20260507144713 54 269 0.0 0.0 0.00 0.00 0.00 53 971.5
20260507144705 55 269 0.0 0.0 0.00 0.00 0.00 50 971.6
20260507143704 54 269 0.0 0.0 0.00 0.00 0.00 53 971.5
20260507143202 53 269 0.0 0.0 0.00 0.00 0.00 53 971.5
20260507142704 52 269 0.0 0.0 0.00 0.00 0.00 55 971.4
20260507142202 50 269 0.0 0.0 0.00 0.00 0.00 61 971.4
20260507141704 49 269 0.0 0.0 0.00 0.00 0.00 60 971.5
20260507141202 49 269 0.0 3.0 0.00 0.00 0.00 59 971.4
20260507140713 48 274 0.0 2.0 0.00 0.00 0.00 60 971.5
20260507140705 48 274 0.0 3.0 0.00 0.00 0.00 59 971.5
20260507135703 48 274 0.0 2.0 0.00 0.00 0.00 60 971.5
20260507135200 47 274 0.0 5.0 0.00 0.00 0.00 62 971.4
20260507134711 47 274 0.0 2.0 0.00 0.00 0.00 62 971.4
20260507134704 47 274 1.0 5.0 0.00 0.00 0.00 62 971.5
20260507133702 47 274 0.0 1.0 0.00 0.00 0.00 63 971.4
20260507133201 47 274 0.0 0.0 0.00 0.00 0.00 63 971.4
20260507132701 47 274 0.0 0.0 0.00 0.00 0.00 64 971.5
20260507132201 46 274 0.0 0.0 0.00 0.00 0.00 60 971.4
20260507131709 46 274 0.0 3.0 0.00 0.00 0.00 61 971.5
20260507131701 46 274 0.0 3.0 0.00 0.00 0.00 60 971.5
20260507130702 46 274 0.0 0.0 0.00 0.00 0.00 60 971.4
20260507130159 46 274 0.0 0.0 0.00 0.00 0.00 61 971.4
20260507125703 46 274 0.0 0.0 0.00 0.00 0.00 61 971.4
20260507125158 46 274 0.0 4.0 0.00 0.00 0.00 60 971.4
20260507124709 46 312 0.0 3.0 0.00 0.00 0.00 61 971.3
20260507124702 46 274 1.0 4.0 0.00 0.00 0.00 60 971.4
20260507124325 45 306 0.0 5.0 0.00 0.00 0.00 61 971.3
20260507123826 45 288 1.0 5.0 0.00 0.00 0.00 62 971.1
20260507122701 45 259 1.0 5.0 0.00 0.00 0.00 61 971.0
20260507122200 45 271 0.0 0.0 0.00 0.00 0.00 62 971.1
20260507121702 45 271 0.0 0.0 0.00 0.00 0.00 62 971.0
20260507121200 45 282 0.0 0.0 0.00 0.00 0.00 62 971.0
20260507120700 45 282 0.0 0.0 0.00 0.00 0.00 61 971.1
20260507120208 45 282 0.0 0.0 0.00 0.00 0.00 60 970.9
20260507120200 45 282 0.0 0.0 0.00 0.00 0.00 60 970.9
20260507115159 45 283 0.0 0.0 0.00 0.00 0.00 60 970.9
20260507114700 45 283 0.0 0.0 0.00 0.00 0.00 60 970.9
20260507114158 45 282 0.0 0.0 0.00 0.00 0.00 60 970.8
20260507113659 45 282 0.0 1.0 0.00 0.00 0.00 61 970.9
20260507113159 45 282 0.0 1.0 0.00 0.00 0.00 60 970.9
20260507112659 45 283 0.0 0.0 0.00 0.00 0.00 60 970.9
20260507112158 45 283 0.0 0.0 0.00 0.00 0.00 59 970.8
20260507111659 45 283 0.0 0.0 0.00 0.00 0.00 59 970.8
20260507111157 45 282 0.0 0.0 0.00 0.00 0.00 60 970.6
20260507110658 44 282 0.0 0.0 0.00 0.00 0.00 60 970.6
20260507110158 44 283 0.0 0.0 0.00 0.00 0.00 60 970.7
20260507105658 44 283 0.0 4.0 0.00 0.00 0.00 60 970.8
20260507105157 44 282 0.0 7.0 0.00 0.00 0.00 61 970.6
20260507104659 44 283 0.0 7.0 0.00 0.00 0.00 62 970.6
20260507104159 44 265 1.0 4.0 0.00 0.00 0.00 63 970.4
20260507103658 44 283 0.0 4.0 0.00 0.00 0.00 64 970.3
20260507103157 44 173 0.0 1.0 0.00 0.00 0.00 65 970.6
20260507102705 44 172 0.0 0.0 0.00 0.00 0.00 64 970.8
20260507102657 44 172 0.0 0.0 0.00 0.00 0.00 66 970.8
20260507101658 44 172 0.0 0.0 0.00 0.00 0.00 64 970.8
20260507101157 44 172 0.0 0.0 0.00 0.00 0.00 63 970.8
20260507100659 44 172 0.0 2.0 0.00 0.00 0.00 62 970.8
20260507100155 45 172 0.0 2.0 0.00 0.00 0.00 62 970.8
20260507095657 45 172 0.0 0.0 0.00 0.00 0.00 63 970.8
20260507095155 45 172 0.0 0.0 0.00 0.00 0.00 63 970.8
20260507094704 45 172 0.0 0.0 0.00 0.00 0.00 64 970.7
20260507094657 45 172 0.0 0.0 0.00 0.00 0.00 63 970.7
20260507093655 46 172 0.0 0.0 0.00 0.00 0.00 64 970.6
20260507093156 46 172 0.0 0.0 0.00 0.00 0.00 64 970.6
20260507092656 46 172 0.0 0.0 0.00 0.00 0.00 62 970.4
20260507092155 46 172 0.0 0.0 0.00 0.00 0.00 60 970.4
20260507091705 46 172 0.0 0.0 0.00 0.00 0.00 57 970.3
20260507091657 46 172 0.0 0.0 0.00 0.00 0.00 59 970.4
20260507090656 47 172 0.0 0.0 0.00 0.00 0.00 57 970.3
20260507090201 47 172 0.0 0.0 0.00 0.00 0.00 57 970.0
20260507090153 47 172 0.0 0.0 0.00 0.00 0.00 56 970.1
20260507085820 47 172 0.0 0.0 0.00 0.00 0.00 58 970.0
20260507084657 47 172 0.0 0.0 0.00 0.00 0.00 58 969.9
20260507084153 47 172 0.0 0.0 0.00 0.00 0.00 58 970.0
20260507083656 47 172 0.0 0.0 0.00 0.00 0.00 57 970.0
20260507083153 47 172 0.0 0.0 0.00 0.00 0.00 57 969.8